Location: Chrome
(40.5765°N, 74.2163°W)
Time: 04:52:22
(UTC+00:00)

NOSS 0 Rocket - Pass Details

Date: 06 December 2019
Orbit: 934 x 956 km, 70.0° (Epoch: 28 January)

Event Time Altitude Azimuth Distance (km) Brightness Sun altitude
Rises 22:18:09 0° 188° (S) 3,590 7.4 -9.1°
Reaches altitude 10° 22:20:43 10° 183° (S) 2,653 6.6 -9.6°
Maximum altitude 22:26:40 52° 109° (ESE) 1,162 4.1 -10.6°
Drops below altitude 10° 22:32:40 10° 34° (NE) 2,683 5.8 -11.7°
Enters shadow 22:33:13 - 33° (NNE) 2,882 6.0 -11.8°
